Location: Kellogg
(38.0159°N, 90.0546°W)
Time: 21:24:55
(UTC+00:00)

Vanguard 1 - Pass Details

Date: 16 September 2024
Orbit: 648 x 3825 km, 34.3° (Epoch: 12 October)

Event Time Altitude Azimuth Distance (km) Brightness Sun altitude
Rises 15:24:45 0° 210° (SSW) 7,632 14.7 40.5°
Reaches altitude 10° 15:31:32 10° 201° (SSW) 6,223 14.4 41.5°
Maximum altitude 15:45:21 28° 152° (SSE) 3,759 14.6 43.6°
Drops below altitude 10° 15:54:23 10° 99° (E) 4,014 13.9 44.9°
Sets 15:57:33 0° 87° (E) 4,614 13.9 45.3°
